Regional Weather Roundup
Issued by NWS Cleveland, OH

Home | Current Version | Previous Version | Text Only | Print | Product List | Glossary Off
Versions: 1 2 3 4 5 6 7 8 9 10 11 12 13 14 15 16 17 18 19 20 21 22 23 24 25 26 27 28 29 30 31 32 33 34 35 36 37 38 39 40 41 42 43 44 45 46 47 48 49 50

000
ASUS41 KCLE 280102
RWRCLE
OHIO REGIONAL WEATHER ROUNDUP
NATIONAL WEATHER SERVICE CLEVELAND, OH
900 PM EDT MON JUL 27 2015

NOTE: "FAIR" INDICATES FEW OR NO CLOUDS BELOW 12,000 FEET WITH NO
SIGNIFICANT WEATHER AND/OR OBSTRUCTIONS TO VISIBILITY.

OHZ001>008-015>018-024>027-034-035-043-044-280200-
   NORTHWEST OHIO

CITY           SKY/WX    TMP DP  RH WIND       PRES   REMARKS
DEFIANCE       CLEAR     80  62  54 NE5       30.00R
FINDLAY        CLEAR     81  63  54 NE8       29.99R
TOLEDO EXPRESS CLEAR     74  62  66 CALM      30.01R
TOLEDO EXEC    CLEAR     80  61  52 CALM      30.01R
LIMA           CLEAR     75  67  76 NE3       30.00R
$$

OHZ009>014-019>023-028>033-038-089-280200-
   NORTHEAST OHIO

CITY           SKY/WX    TMP DP  RH WIND       PRES   REMARKS
CLE-HOPKINS    PTCLDY    77  66  68 N9        30.01S
CLE-LAKEFRONT  CLEAR     77  69  76 NE10      29.99R
CUY CO. ARPT   PTCLDY    77  66  69 NE9       30.02R
LORAIN-ELYRIA  CLEAR     75  61  61 NE6       30.01R
ASHTABULA      CLEAR     74  64  71 CALM      30.02S
AKRON-CANTON   PTCLDY    79  61  53 NE3       30.00S
WOOSTER        CLEAR     76  65  68 N7        30.01R
MANSFIELD      CLEAR     76  64  66 N6        30.02R
YOUNGSTOWN     PTCLDY    76  64  66 NE9       30.01S
$$

OHZ042-051>053-060>062-070>072-077>081-280200-
  SOUTHWEST OHIO

CITY           SKY/WX    TMP DP  RH WIND       PRES   REMARKS
CINC-COVINGTON MOCLDY    82  72  71 NE8       29.97R
CINC-LUNKEN    PTCLDY    78  75  90 CALM      29.96R
HAMILTON       PTCLDY    78  73  84 CALM      29.97R
DAYTON         PTCLDY    77  73  87 NE6       30.00R
WRIGHT-PAT AFB CLEAR     79  74  85 NE5       29.98R
DAYTON GENERAL   N/A    N/A N/A N/A MISG      29.97S
WILMINGTON     CLOUDY    78  71  79 NE6       29.98R
$$

OHZ036-037-039>041-045>050-054>059-063>069-073>076-082>088-280200-
  CENTRAL AND SOUTHEAST OHIO

CITY           SKY/WX    TMP DP  RH WIND       PRES   REMARKS
COLUMBUS       MOCLDY    79  66  64 E5        29.97R
OSU AIRPORT    PTCLDY    79  63  57 NE5       29.98R
BOLTON FIELD   NOT AVBL
RICKENBACK AFB NOT AVBL
NEWARK         MOCLDY    76  66  71 CALM      29.98R
MARION         CLEAR     76  67  73 NE8       30.00R
LANCASTER      CLEAR     76  70  82 NE3       29.98R
ZANESVILLE     MOCLDY    80  65  59 CALM      29.98R
NEW PHILLY     CLEAR     73  67  81 CALM      29.99S
$$


USA.gov is the U.S. government's official web portal to all federal, state and local government web resources and services.